Weather History for KBIH - July, 2013

Change the Weather History Date:

Tuesday, July 23, 2013

  Actual Average Record
Temperature  
Mean Temperature 76 °F 78 °F  
Max Temperature 89 °F 99 °F 105 °F (1980)
Min Temperature 63 °F 57 °F 44 °F (1947)
Degree Days  
Heating Degree Days 0 0  
Month to date heating degree days 0 0  
Since 1 June heating degree days 0 19  
Since 1 July heating degree days 0 0  
Cooling Degree Days 11 13  
Month to date cooling degree days 355 282  
Year to date cooling degree days 771 564  
Since 1 June cooling degree days 685 496  
Growing Degree Days 26 (Base 50)    
Moisture  
Dew Point 57 °F    
Average Humidity 59    
Maximum Humidity 90    
Minimum Humidity 27    
Precipitation  
Precipitation 0.05 in 0.01 in 0.17 in (1997)
Month to date precipitation 0.37 0.13  
Year to date precipitation 0.84 3.20  
Snow  
Snow 0.00 in 0.00 in - ()
Month to date snowfall 0.0 0.0  
Since 1 June snowfall 0.0 0.0  
Since 1 July snowfall 0.0 0.0  
Snow Depth 0.00 in    
Sea Level Pressure  
Sea Level Pressure 29.99 in    
Wind  
Wind Speed 6 mph (SSE)    
Max Wind Speed 30 mph    
Max Gust Speed 38 mph    
Visibility 10 miles    
Events Rain , Thunderstorm    
T = Trace of Precipitation, MM = Missing Value Source: NWS Daily Summary

Daily Weather History Graph

Daily Weather History Graph

Search for Another Location

Airport or City:

Trip Planner

Search our weather history database for the weather conditions in past years. The results will help you decide how hot, cold, wet, or windy it might be!

Date:

Astronomy

Jul. 23, 2013 Rise Set
Actual Time 5:50 AM PDT 8:08 PM PDT
Civil Twilight 5:21 AM PDT 8:38 PM PDT
Nautical Twilight 4:44 AM PDT 9:14 PM PDT
Astronomical Twilight 4:04 AM PDT 9:54 PM PDT
Moon 8:43 PM PDT (7/23) 7:02 AM PDT (7/23)
Length of Visible Light 15h 16m
Length of Day
14h 17m
Full, 98% of the Moon is Illuminated
Jul 23
Full
Jul 29
Last Quarter
Aug 6
New
Aug 14
First Quarter
Aug 20
Full

Hourly Weather History & Observations

Time (PDT) Temp. Heat Index Dew Point Humidity Pressure Visibility Wind Dir Wind Speed Gust Speed Precip Events Conditions
12:06 AM 75.2 °F - 57.2 °F 53% 30.15 in 10.0 mi Variable 3.5 mph 17.3 mph N/A Thunderstorm Overcast
12:23 AM 66.2 °F - 59.0 °F 78% 30.17 in 10.0 mi South 13.8 mph 31.1 mph 0.01 in Rain Light Rain
12:56 AM 71.1 °F - 57.0 °F 61% 30.01 in 10.0 mi South 16.1 mph 25.3 mph 0.01 in Rain , Thunderstorm Light Thunderstorms and Rain
1:23 AM 66.2 °F - 59.0 °F 78% 30.19 in 10.0 mi South 18.4 mph 35.7 mph 0.01 in Rain Light Rain
1:56 AM 64.0 °F - 60.1 °F 87% 30.06 in 10.0 mi SSE 16.1 mph 24.2 mph 0.04 in Rain Light Rain
2:56 AM 64.9 °F - 59.0 °F 81% 30.00 in 10.0 mi South 4.6 mph - 0.01 in Rain Light Rain
3:56 AM 64.9 °F - 57.0 °F 75% 29.98 in 10.0 mi South 11.5 mph - 0.00 in   Clear
4:56 AM 63.0 °F - 57.9 °F 84% 29.99 in 10.0 mi NE 10.4 mph - N/A   Clear
5:56 AM 63.0 °F - 59.0 °F 87% 30.02 in 10.0 mi North 3.5 mph - N/A   Overcast
6:56 AM 64.0 °F - 59.0 °F 84% 30.01 in 10.0 mi West 5.8 mph - N/A   Overcast
7:56 AM 64.9 °F - 60.1 °F 84% 30.02 in 10.0 mi ENE 4.6 mph - 0.00 in Rain Light Rain
8:56 AM 66.9 °F - 59.0 °F 76% 30.03 in 10.0 mi Calm Calm - 0.00 in   Overcast
9:56 AM 72.0 °F - 57.9 °F 61% 30.02 in 10.0 mi Calm Calm - N/A   Overcast
10:56 AM 75.0 °F - 57.0 °F 53% 30.00 in 10.0 mi Calm Calm - N/A   Clear
11:56 AM 79.0 °F - 55.9 °F 45% 29.98 in 10.0 mi SSE 6.9 mph - N/A   Clear
12:56 PM 82.9 °F 82.1 °F 55.9 °F 39% 29.95 in 10.0 mi SSE 6.9 mph - N/A   Clear
1:56 PM 84.9 °F 83.2 °F 53.1 °F 33% 29.94 in 10.0 mi SE 9.2 mph - N/A   Clear
2:56 PM 84.0 °F 82.6 °F 54.0 °F 35% 29.93 in 10.0 mi SSE 13.8 mph - N/A   Mostly Cloudy
3:56 PM 86.0 °F - 50.0 °F 29% 29.90 in 10.0 mi SSE 17.3 mph 25.3 mph N/A   Partly Cloudy
4:56 PM 86.0 °F - 48.9 °F 28% 29.89 in 10.0 mi SSE 13.8 mph - N/A   Clear
5:56 PM 84.0 °F 82.5 °F 53.1 °F 34% 29.88 in 10.0 mi South 10.4 mph - N/A   Scattered Clouds
6:56 PM 82.0 °F 81.3 °F 54.0 °F 38% 29.91 in 10.0 mi Calm Calm - 0.00 in Rain Light Rain
7:56 PM 79.0 °F - 57.9 °F 48% 29.91 in 10.0 mi SE 5.8 mph - 0.00 in   Overcast
8:56 PM 79.0 °F - 59.0 °F 50% 29.93 in 10.0 mi Calm Calm - N/A   Clear
9:56 PM 75.9 °F - 59.0 °F 56% 29.94 in 10.0 mi Calm Calm - N/A   Partly Cloudy
10:56 PM 71.1 °F - 61.0 °F 70% 29.96 in 10.0 mi WNW 4.6 mph - N/A   Clear
11:56 PM 71.1 °F - 57.0 °F 61% 29.96 in 10.0 mi NNW 6.9 mph - N/A   Clear